Location: Stilling
(56.0622°N, 9.9882°E)
Time: 00:21:30
(UTC+00:00)

GEOS 3 Rocket - Pass Details

Date: 13 July 2020
Orbit: 771 x 848 km, 115.0° (Epoch: 03 August)

Event Time Altitude Azimuth Distance (km) Brightness Sun altitude
Rises 22:37:30 0° 49° (NE) 3,405 7.3 -11.6°
Reaches altitude 10° 22:39:49 10° 49° (NE) 2,474 6.5 -11.7°
Maximum altitude 22:45:15 88° 321° (NW) 856 3.7 -11.8°
Drops below altitude 10° 22:50:40 10° 232° (SW) 2,471 5.8 -11.9°
Sets 22:52:59 0° 233° (SW) 3,401 6.6 -12.0°
